DELTA 1 DEB, 3123

Orbit data source: Space-Track

DELTA 1 DEB, 3123 is space debris in SSO originally from a launch on Fri, 10 Nov 1967 UTC launched from the Air Force Western Test Range (AFWTR). Debris objects in space refer to the collection of defunct objects orbiting the Earth. Examples of debris include non-operational satellites, rocket bodies, and fragments generated from explosions, collisions, or faulty payload assembly.

Loading next visibility...
Identifier
3123, 1967-114D
Orbit
SSO
Country
Flag of USUS
Related business
Manufacturer
Unknown
Mission
Spacecraft
Bus & Motor
Unknown
Mass
Unknown
Launch date (UTC)
1967-11-10 (58 years ago)
Launch vehicle
Unknown
Launch site
Air Force Western Test Range (AFWTR)
Object type
Payload
Rocket body
Debris
Shape & HBR
Unknown shape, 0.1 m
Radar Cross Section
Small (<0.1 m²)

Expand to show TLE details & history
Last TLE update: 1 day ago

TLE from 1 day ago
0 DELTA 1 DEB
1 03123U 67114D   26035.09333079 -.00000025  00000-0  15670-3 0  9998
2 03123 102.4516 164.8736 0028517 147.1397  33.6298 12.48101847652156
Epoch: 2026-02-04T02:14Z
TLE epoch observation values (Epoch: 2026-02-04T02:14:23.780Z)
Latitude
-1.0387°
Longitude
176.7814°
Altitude
1,456.503 km
Speed
7.143 km/s
True Right ascension
22h 58m 34s
True Declination
-1° 01' 59"
Sunlit
Object was in daylight at epoch
Visualization orbit readout
Latitude
Unknown
Longitude
Unknown
Altitude
Unknown
Speed
Unknown
Apparent Right ascension
Unknown
Apparent Declination
Unknown
Sunlit
N/A
Visualization observer readout
Local Sidereal Time
15:13:07
Azimuth
Unknown
Elevation
Unknown
Doppler factor
Unknown
Orbital elements
Apogee altitude
1,492.417 km
Perigee altitude
1,447.655 km
Semi-major axis
7,848.173 km
Eccentricity
0.00285
Inclination
102.4516°
RAAN
164.8736°
Arg. of periapsis
147.1397°
True anomaly
33.81132°
Mean anomaly
33.6298°
Eccentric anomaly
33.7205°
Mean motion
3.12169 °/min
Orbital period
115.32 mins
BSTAR
0.0001567
Loading maneuver chart data...
Computing Atmospheric mass density...
Loading historical data...
Loading historical data...
Loading historical data...
Loading historical data...
Loading historical data...
Loading historical data...
Loading historical data...
Other satellites on launch #114 in the year 1967 (1967-11-10 UTC)

Documentation

Showing up to 5 results
|